Airfield :
LOGIN :

Register | Disclaimer

   EN    FR    IT 

 










Legend :    VFR   Marginal VFR   IFR   Intensive IFR   Very Intensive IFR
Visi :
Ceiling :
>= 8 km
>= 3000ft
5 to 8 km
1000 to 3000 ft
1500m to 5 km
500 to 1000 ft
800 to 1500m
200 to 500 ft
< 800m
< 200 ft
Symbols :   Thunderstorms  Fog  Heavy snow  Heavy precipitations  Wind > 20 kt
SIGMETs :     Misc.  Thunderstorms  Icing  Turbulence  Mountain Waves  Volcanic Ashes







- Airport Elevation : 12 ft
- IATA code : NCE
- Download approach charts


LFMN - Nice

CURRENT METAR :
  • 230630Z 32012KT CAVOK 14/07 Q1022 NOSIG

EXPIRED METARs :
  • 230600Z 33013KT CAVOK 14/07 Q1022 NOSIG
  • 230530Z 33012KT CAVOK 14/07 Q1022 NOSIG
  • 230500Z 33012KT CAVOK 14/07 Q1022 NOSIG
  • 230430Z 33011KT 320V020 CAVOK 14/08 Q1022 NOSIG
  • 230400Z 33008KT CAVOK 14/08 Q1022 NOSIG

TAF TAF LFMN
Valid from the 23 at 03:00 until the 24 at 09:00 UTC


230200Z 2303/2409 33010KT CAVOK
BECMG 2309/2311 19010KT
BECMG 2317/2319 33010KT
ATIS : +33 4 93 17 21 16
No reported NOTAMs for that airfield.



MET'MAP, your aeronautical weather chart ! - Copyright ORBIFLY December 2007 - Disclaimer

ORBIFLY MET'MAP TEAM :

Programming & Development : Alexandra Zaïnal
Concept & Development : Baudouin d'Aumeries
Co-Development & Prog : Marc-Olivier Méhu
Technical & hardware support : Manuel Goepfert

Contact : metmap@orbifly.com




SOURCES & CREDITS :

   NOAA